{"data":{"norad_id":69418,"epoch":"2026-09-20T02:55:04.692576Z","epoch_age_seconds":67103,"freshness":"FRESH","line1":"1 69418U 26125T   26263.12158209  .00000035  00000+0  36023-4 0  9996","line2":"2 69418  88.9884 270.3569 0002087 105.5752 254.5630 13.51026220 14764","mean_motion":13.5102622,"eccentricity":0.0002087,"inclination_deg":88.9884,"raan_deg":270.3569,"arg_perigee_deg":105.5752,"mean_anomaly_deg":254.563,"bstar":3.6023e-5,"rev_number":1476,"period_min":106.58564420756,"perigee_km":1066.9311268974,"apogee_km":1070.0393470191,"semimajor_km":7446.6222369582,"source":"CELESTRAK","updated_at":"2026-09-20T09:00:24.869418Z"}}